Home   Weather   Auckland   Past weeks
Flag for New Zealand

Past Weather in Auckland, New Zealand — April 2020

Now
55 °F

Overcast.


Feels Like: 55 °F
Forecast: 62 / 56 °F
Wind: 3 mph from Southeast

Location: Auckland Airport

Current Time: May 29, 2020 at 11:34:37 pm

Latest Report: May 29, 2020 at 10:30 pm


Visibility: N/A

Pressure: 30.04 "Hg

Humidity: 100%

Dew Point: 55 °F

Location of AucklandLocation

April 2020 Weather in Auckland — Graph

°F

High & Low Weather Summary for April 2020

 TemperatureHumidityPressure
High73 °F (Apr 1, 2:30 pm)100% (Apr 1, 12:30 am)30.54 "Hg (Apr 1, 12:30 am)
Low48 °F (Apr 11, 6:30 am)38% (Apr 1, 4:00 pm)29.56 "Hg (Apr 13, 12:30 am)
Average61 °F79%30.00 "Hg
* Reported Apr 1 12:00 am — Apr 30 11:30 pm, Auckland. Weather by CustomWeather, © 2020

Note: Actual official high and low records may vary slightly from our data, if they occured in-between our weather recording intervals... More about our weather records

Auckland Weather History for April 1, 2020

Scroll right to see more
 ConditionsComfort  
Time TempWeatherWind HumidityBarometerVisibility
12:00 am
Wed, Apr 1
61 °FCool.2 mph94%30.07 "HgN/A
12:30 am59 °FLight fog.1 mph100%30.07 "Hg2 mi
1:00 am59 °FCool.2 mph100%30.07 "HgN/A
1:30 am57 °FLight fog.No wind100%30.07 "Hg1 mi
2:00 am59 °FCool.2 mph100%30.07 "Hg4 mi
2:30 am57 °FFog.1 mph100%30.07 "Hg1 mi
3:30 am59 °FFog.2 mph94%30.07 "Hg1 mi
4:00 am59 °FCool.2 mph94%30.07 "HgN/A
4:30 am57 °FCool.1 mph100%30.07 "Hg4 mi
5:00 am57 °FCool.2 mph94%30.04 "Hg4 mi
5:30 am57 °FCool.2 mph100%30.04 "HgN/A
6:00 am57 °FCool.2 mph100%30.04 "HgN/A
6:30 am57 °FLight fog.2 mph94%30.04 "Hg1 mi
7:00 am57 °FCool.1 mph94%30.04 "HgN/A
7:30 am57 °FCool.2 mph100%30.07 "HgN/A
8:00 am57 °FPartly sunny.1 mph94%30.07 "HgN/A
8:30 am59 °FFog.3 mph100%30.07 "Hg0 mi
9:00 am59 °FFog.5 mph94%30.07 "Hg1 mi
9:30 am59 °FPassing clouds.3 mph100%30.07 "HgN/A
10:00 am61 °FCool.5 mph94%30.07 "HgN/A
10:30 am63 °FMild.5 mph88%30.09 "HgN/A
11:00 am64 °FMild.5 mph83%30.09 "HgN/A
11:30 am66 °FMild.3 mph78%30.09 "HgN/A
12:00 pm68 °FMild.3 mph69%30.09 "HgN/A
12:30 pm70 °FMild.5 mph64%30.07 "HgN/A
1:00 pm70 °FMild.7 mph69%30.07 "HgN/A
1:30 pm70 °FMild.7 mph69%30.07 "HgN/A
2:00 pm72 °FMild.8 mph65%30.04 "HgN/A
2:30 pm73 °FMild.7 mph57%30.04 "HgN/A
3:00 pm73 °FMild.7 mph47%30.01 "HgN/A
3:30 pm73 °FMild.7 mph41%30.01 "HgN/A
4:00 pm73 °FMild.9 mph38%30.01 "HgN/A
4:30 pm73 °FMild.9 mph50%30.01 "HgN/A
5:00 pm73 °FMild.9 mph61%30.01 "HgN/A
5:30 pm72 °FMild.13 mph61%30.01 "HgN/A
6:00 pm72 °FMild.12 mph61%30.01 "HgN/A
6:30 pm70 °FMild.10 mph69%30.01 "HgN/A
7:00 pm68 °FMild.12 mph73%30.01 "HgN/A
7:30 pm66 °FMild.10 mph73%30.04 "HgN/A
8:00 pm64 °FMild.8 mph83%30.04 "HgN/A
8:30 pm64 °FMild.6 mph83%30.04 "HgN/A
9:00 pm63 °FMild.7 mph88%30.04 "HgN/A
9:30 pm63 °FMild.6 mph88%30.07 "HgN/A
10:00 pm63 °FMild.6 mph83%30.07 "HgN/A
10:30 pm63 °FMild.6 mph83%30.07 "HgN/A
11:00 pm63 °FMild.6 mph83%30.07 "HgN/A
11:30 pm61 °FCool.6 mph88%30.07 "HgN/A
Weather by CustomWeather, © 2020

See weather overview

Advertising